sat.trackr.live / text

‹ back to catalog

STARLINK-35582

NORAD 66537 · 2025-265X

PAYLOAD ACTIVE UNKNOWN

§ Identity

Operator
Country
US
Launch date
2025-11-19
Launch site
AFETR
Launch vehicle
Mass (kg)
RCS (m²)

Purposes: comms

External: N2YO · Heavens-Above · Gunter

§ Orbital elements

Epoch: 2026-09-20T08:21:35.140896Z

Period
94.27 min
Inclination
42.9997°
Eccentricity
0.0002278
Mean motion
15.27597562 rev/d
Perigee alt
481.4 km
Apogee alt
484.6 km
Semi-major
6,861.1 km
B*
4.6345e-4
RAAN
258.6274°
Arg perigee
286.7159°
Mean anomaly
73.3443°
Rev number
4,688

§ Raw data

STARLINK-355821 66537U 25265X   26263.34832339  .00012520  00000+0  46345-3 0  99952 66537  42.9997 258.6274 0002278 286.7159  73.3443 15.27597562 46889

JSON: /api/v1/satellites/66537 · /tle

For live sub-satellite position, see the globe view (requires WebGL).

§ Visibility from observer

Set your observer location to see the next 7 days of passes ≥ 10°. The values pass through the URL so the page stays shareable.

No JS? Fill the form by hand. The geolocation button needs JavaScript.